W1CLK Weather Reports


time (UTC)temp
C
wind
direction
speed
KPH
gust
KPH
rain 1hr
cm
rain 24hr
cm
rain mn
cm
humidity
%
barometer
mb
20260506182844 16 251 6.4 12.9 0.00 0.00 0.58 93 1008.0
20260506182345 16 260 6.4 9.7 0.00 0.00 0.58 93 1009.0
20260506181844 15 273 8.0 12.9 0.00 0.00 0.58 93 1009.0
20260506181344 15 250 6.4 9.7 0.00 0.00 0.58 94 1009.0
20260506180845 15 271 9.7 17.7 0.00 0.00 0.58 93 1009.0
20260506180344 15 227 9.7 14.5 0.00 0.00 0.58 94 1009.0
20260506175844 15 266 14.5 20.9 0.00 0.00 0.58 94 1009.0
20260506175344 15 281 8.0 12.9 0.00 0.00 0.58 94 1009.0
20260506174844 15 268 4.8 9.7 0.00 0.00 0.58 94 1009.0
20260506174345 15 275 9.7 19.3 0.00 0.00 0.58 93 1009.0
20260506173844 15 107 4.8 12.9 0.00 0.00 0.58 93 1009.0
20260506173345 15 263 6.4 11.3 0.00 0.00 0.58 93 1009.0
20260506172845 15 269 8.0 17.7 0.00 0.00 0.58 93 1009.0
20260506172345 15 273 9.7 17.7 0.00 0.00 0.58 93 1009.0
20260506171844 15 253 9.7 22.5 0.00 0.00 0.58 93 1009.0
20260506171345 15 247 4.8 9.7 0.00 0.00 0.58 93 1009.0
20260506170844 15 184 8.0 11.3 0.00 0.00 0.58 93 1009.0
20260506170345 15 277 9.7 16.1 0.00 0.00 0.58 93 1009.0
20260506165845 15 238 8.0 14.5 0.00 0.00 0.58 93 1009.0
20260506165345 15 178 9.7 16.1 0.00 0.00 0.58 94 1009.0
20260506164845 15 245 11.3 22.5 0.00 0.00 0.58 94 1009.0
20260506164345 15 235 9.7 20.9 0.00 0.00 0.58 94 1009.0
20260506163844 15 225 6.4 11.3 0.00 0.00 0.58 94 1009.0
20260506163345 15 172 9.7 14.5 0.00 0.00 0.58 94 1009.0
20260506162844 16 157 3.2 6.4 0.00 0.00 0.58 94 1009.0
20260506162344 15 150 8.0 11.3 0.03 0.00 0.61 94 1009.0
20260506161845 15 127 4.8 11.3 0.05 0.00 0.61 95 1009.0
20260506161345 15 20 6.4 11.3 0.23 0.00 0.58 95 1009.0
20260506160844 15 121 8.0 9.7 0.28 0.00 0.56 95 1009.0
20260506160345 15 155 6.4 8.0 0.25 0.00 0.56 95 1009.0
20260506155845 15 60 4.8 12.9 0.03 0.00 0.53 95 1009.0
20260506155344 15 253 9.7 17.7 0.05 0.00 0.53 95 1010.0
20260506154845 15 177 8.0 11.3 0.18 0.00 0.51 95 1010.0
20260506154346 15 247 6.4 9.7 0.36 0.00 0.48 95 1010.0
20260506153844 15 124 4.8 6.4 0.10 0.00 0.46 95 1010.0
20260506153345 15 254 6.4 11.3 0.13 0.00 0.43 94 1010.0
20260506152845 15 253 4.8 9.7 0.46 0.00 0.41 94 1010.0
20260506152346 15 53 3.2 9.7 0.13 0.00 0.41 94 1010.0
20260506151844 15 285 4.8 11.3 0.10 0.00 0.41 94 1010.0
20260506151345 15 263 6.4 9.7 0.13 0.00 0.38 94 1010.0
20260506150845 15 262 6.4 9.7 0.10 0.00 0.38 94 1010.0
20260506150344 15 157 3.2 6.4 0.38 0.00 0.38 94 1010.0
20260506145845 15 76 4.8 6.4 0.36 0.00 0.36 94 1010.0
20260506145344 15 109 3.2 8.0 0.20 0.00 0.30 93 1010.0
20260506144844 15 333 0.0 1.6 0.15 0.00 0.28 93 1010.0
20260506144345 15 107 3.2 8.0 0.13 0.00 0.25 93 1010.0
20260506143844 15 124 6.4 14.5 0.10 0.00 0.23 92 1010.0
20260506143344 15 214 4.8 8.0 0.13 0.00 0.23 92 1010.0
20260506142844 15 213 3.2 8.0 0.08 0.00 0.20 92 1010.0
20260506142344 15 137 4.8 9.7 0.08 0.00 0.20 91 1010.0
20260506141844 15 242 6.4 9.7 0.20 0.00 0.20 91 1010.0
20260506141344 16 269 6.4 8.0 0.18 0.00 0.18 91 1010.0
20260506140845 16 151 1.6 6.4 0.25 0.00 0.15 90 1010.0
20260506135858 16 96 6.4 9.7 0.36 0.00 0.10 87 1010.0
20260506135344 16 197 3.2 9.7 0.03 0.00 0.10 86 1010.0
20260506134846 16 121 6.4 9.7 0.03 0.00 0.08 86 1010.0
20260506134345 16 139 3.2 8.0 0.03 0.00 0.08 85 1010.0
20260506133844 17 213 4.8 6.4 0.03 0.00 0.08 84 1010.0
20260506133344 17 282 3.2 9.7 0.00 0.00 0.08 84 1010.0
20260506132844 17 257 6.4 11.3 0.00 0.00 0.08 85 1010.0
20260506132344 16 141 3.2 8.0 0.03 0.00 0.08 85 1010.0
20260506131845 16 275 4.8 12.9 0.00 0.00 0.05 85 1010.0
20260506131345 16 151 1.6 4.8 0.00 0.00 0.05 85 1010.0
20260506130845 16 153 8.0 14.5 0.00 0.00 0.03 85 1010.0
20260506130345 16 245 3.2 6.4 0.05 0.00 0.03 85 1010.0
20260506125845 17 122 4.8 8.0 0.00 0.00 0.03 84 1010.0
20260506125345 17 259 3.2 6.4 0.03 0.00 0.00 83 1010.0
20260506124844 17 125 4.8 8.0 0.00 0.00 0.00 82 1010.0
20260506124345 17 271 6.4 11.3 0.00 0.00 0.00 81 1010.0
20260506123844 17 249 1.6 3.2 0.00 0.00 0.00 81 1010.0
20260506123345 17 254 6.4 9.7 0.00 0.00 0.00 81 1010.0
20260506122844 17 273 1.6 6.4 0.00 0.00 0.00 81 1010.0
20260506122345 17 247 3.2 4.8 0.00 0.00 0.00 80 1010.0
20260506121844 17 266 6.4 8.0 0.00 0.00 0.00 80 1010.0
20260506121345 17 279 4.8 11.3 0.00 0.00 0.00 81 1010.0
20260506120844 17 264 8.0 17.7 0.00 0.00 0.00 80 1010.0
20260506120344 17 276 4.8 8.0 0.00 0.00 0.00 80 1010.0
20260506115844 17 252 8.0 12.9 0.00 0.00 0.00 80 1010.0
20260506115344 17 91 1.6 3.2 0.00 0.00 0.00 80 1010.0
20260506114844 17 269 8.0 12.9 0.00 0.00 0.00 80 1010.0
20260506114344 17 255 4.8 8.0 0.00 0.00 0.00 80 1010.0
20260506113846 17 267 6.4 11.3 0.00 0.00 0.00 79 1010.0
20260506113344 17 263 9.7 20.9 0.00 0.00 0.00 80 1010.0
20260506112844 17 116 3.2 6.4 0.00 0.00 0.00 80 1010.0
20260506112345 17 263 4.8 9.7 0.00 0.00 0.00 80 1010.0
20260506111844 17 244 6.4 9.7 0.00 0.00 0.00 80 1010.0
20260506111344 17 127 3.2 14.5 0.00 0.00 0.00 80 1010.0
20260506110844 17 225 4.8 11.3 0.00 0.00 0.00 80 1009.0
20260506110344 17 198 3.2 8.0 0.00 0.00 0.00 80 1010.0
20260506105844 17 141 1.6 4.8 0.00 0.00 0.00 80 1010.0
20260506105344 17 179 4.8 8.0 0.00 0.00 0.00 80 1010.0
20260506104844 17 202 3.2 6.4 0.00 0.00 0.00 80 1009.0
20260506104344 17 152 3.2 3.2 0.00 0.00 0.00 80 1009.0
20260506103845 17 256 3.2 4.8 0.00 0.00 0.00 80 1009.0
20260506103344 17 195 6.4 9.7 0.00 0.00 0.00 80 1009.0
20260506102844 17 198 4.8 8.0 0.00 0.00 0.00 80 1009.0
20260506102345 17 192 1.6 6.4 0.00 0.00 0.00 79 1009.0
20260506101844 17 255 3.2 6.4 0.00 0.00 0.00 80 1009.0
20260506101345 17 146 1.6 4.8 0.00 0.00 0.00 80 1009.0
20260506100844 17 177 4.8 6.4 0.00 0.00 0.00 79 1009.0
20260506100345 17 141 3.2 4.8 0.00 0.00 0.00 79 1009.0
20260506095844 17 277 3.2 4.8 0.00 0.00 0.00 79 1009.0
20260506095344 17 135 9.7 16.1 0.00 0.00 0.00 78 1009.0
20260506094844 17 89 1.6 4.8 0.00 0.00 0.00 79 1009.0
20260506094344 17 266 6.4 12.9 0.00 0.00 0.00 78 1009.0
20260506093844 17 97 1.6 4.8 0.00 0.00 0.00 78 1009.0
20260506093344 17 189 3.2 6.4 0.00 0.00 0.00 77 1009.0
20260506092844 18 122 3.2 6.4 0.00 0.00 0.00 77 1009.0
20260506092344 18 259 1.6 6.4 0.00 0.00 0.00 77 1009.0
20260506091844 18 148 6.4 9.7 0.00 0.00 0.00 76 1009.0
20260506091344 18 170 4.8 12.9 0.00 0.00 0.00 77 1009.0
20260506090844 18 237 4.8 11.3 0.00 0.00 0.00 76 1009.0
20260506090344 18 226 6.4 9.7 0.00 0.00 0.00 77 1009.0
20260506085845 18 148 1.6 6.4 0.00 0.00 0.00 77 1010.0
20260506085344 18 218 3.2 8.0 0.00 0.00 0.00 77 1009.0
20260506084846 18 165 4.8 6.4 0.00 0.00 0.00 76 1009.0
20260506084344 18 230 1.6 6.4 0.00 0.00 0.00 76 1009.0
20260506083846 18 119 3.2 11.3 0.00 0.00 0.00 76 1009.0
20260506083344 18 229 4.8 6.4 0.00 0.00 0.00 76 1009.0
20260506082844 18 130 3.2 6.4 0.00 0.00 0.00 75 1009.0
20260506082344 18 172 4.8 8.0 0.00 0.00 0.00 75 1009.0
20260506081844 18 59 1.6 6.4 0.00 0.00 0.00 75 1009.0
20260506081344 18 137 6.4 9.7 0.00 0.00 0.00 74 1010.0
20260506080845 18 214 3.2 6.4 0.00 0.00 0.00 74 1009.0
20260506080344 18 145 3.2 6.4 0.00 0.00 0.00 73 1010.0
20260506073345 18 170 3.2 8.0 0.00 0.00 0.00 72 1010.0
20260506072844 18 128 4.8 11.3 0.00 0.00 0.00 72 1010.0
20260506072345 18 123 3.2 8.0 0.00 0.00 0.00 72 1010.0
20260506071844 18 163 3.2 6.4 0.00 0.00 0.00 72 1010.0
20260506071344 18 160 4.8 9.7 0.00 0.00 0.00 72 1010.0
20260506070844 18 156 4.8 8.0 0.00 0.00 0.00 71 1010.0
20260506070345 18 191 3.2 6.4 0.00 0.00 0.00 71 1010.0
20260506062344 18 187 0.0 3.2 0.00 0.00 0.00 68 1010.0
20260506061844 18 124 4.8 6.4 0.00 0.00 0.00 68 1010.0
20260506061345 18 135 3.2 6.4 0.00 0.00 0.00 67 1010.0
20260506060845 18 261 3.2 4.8 0.00 0.00 0.00 68 1010.0
20260506060344 18 133 3.2 4.8 0.00 0.00 0.00 67 1010.0
20260506051344 19 135 3.2 3.2 0.00 0.00 0.00 64 1011.0
20260506050845 19 227 3.2 4.8 0.00 0.00 0.00 64 1011.0
20260506050344 19 183 4.8 11.3 0.00 0.00 0.00 64 1011.0
20260506044845 19 252 4.8 9.7 0.00 0.00 0.00 63 1011.0
20260506044344 19 182 3.2 6.4 0.00 0.00 0.00 63 1011.0
20260506043844 19 214 3.2 9.7 0.00 0.00 0.00 63 1011.0
20260506043344 19 162 1.6 4.8 0.00 0.00 0.00 63 1011.0
20260506042844 19 159 3.2 9.7 0.00 0.00 0.00 62 1011.0
20260506042345 19 207 3.2 14.5 0.00 0.00 0.00 62 1011.0
20260506041844 19 181 6.4 12.9 0.00 0.00 0.00 62 1011.0
20260506041345 19 252 4.8 8.0 0.00 0.00 0.00 62 1011.0
20260506040844 19 205 3.2 4.8 0.00 0.00 0.00 62 1011.0
20260506040345 19 226 3.2 8.0 0.00 0.00 0.00 62 1011.0
20260506035844 19 112 1.6 4.8 0.00 0.00 0.00 62 1011.0
20260506035344 19 159 1.6 6.4 0.00 0.00 0.00 63 1011.0
20260506034845 19 171 3.2 8.0 0.00 0.00 0.00 62 1011.0
20260506034344 19 212 3.2 6.4 0.00 0.00 0.00 62 1011.0
20260506033845 19 163 3.2 6.4 0.00 0.00 0.00 62 1011.0
20260506033344 19 149 4.8 9.7 0.00 0.00 0.00 62 1011.0
20260506032844 19 157 1.6 4.8 0.00 0.00 0.00 62 1011.0
20260506032344 19 149 1.6 6.4 0.00 0.00 0.00 62 1011.0
20260506031844 20 147 1.6 4.8 0.00 0.00 0.00 61 1011.0
20260506031344 20 140 3.2 6.4 0.00 0.00 0.00 60 1011.0
20260506030845 20 227 1.6 4.8 0.00 0.00 0.00 60 1011.0
20260506030345 20 152 4.8 16.1 0.00 0.00 0.00 60 1011.0
20260506025845 20 251 3.2 11.3 0.00 0.00 0.00 60 1011.0
20260506025344 20 274 3.2 6.4 0.00 0.00 0.00 59 1011.0
20260506024845 20 128 3.2 6.4 0.00 0.00 0.00 59 1011.0
20260506024344 20 122 3.2 6.4 0.00 0.00 0.00 59 1011.0
20260506023844 20 122 4.8 9.7 0.00 0.00 0.00 59 1011.0
20260506023344 20 100 1.6 3.2 0.00 0.00 0.00 58 1011.0
20260506022845 20 142 1.6 4.8 0.00 0.00 0.00 59 1011.0
20260506022344 20 126 3.2 12.9 0.00 0.00 0.00 58 1011.0
20260506021844 20 35 1.6 4.8 0.00 0.00 0.00 58 1011.0
20260506021344 20 282 3.2 8.0 0.00 0.00 0.00 58 1011.0
20260506020844 20 115 4.8 9.7 0.00 0.00 0.00 58 1011.0
20260506020346 20 146 3.2 6.4 0.00 0.00 0.00 57 1011.0
20260506015845 20 108 3.2 8.0 0.00 0.00 0.00 57 1011.0
20260506015345 21 133 3.2 6.4 0.00 0.00 0.00 57 1011.0
20260506014844 21 199 0.0 3.2 0.00 0.00 0.00 56 1010.0
20260506014345 21 155 1.6 3.2 0.00 0.00 0.00 56 1010.0
20260506013845 21 183 3.2 6.4 0.00 0.00 0.00 56 1010.0
20260506013344 21 145 3.2 6.4 0.00 0.00 0.00 55 1010.0
20260506012844 21 86 3.2 6.4 0.00 0.00 0.00 55 1010.0
20260506012345 21 217 1.6 6.4 0.00 0.00 0.00 54 1010.0
20260506011844 21 254 3.2 6.4 0.00 0.00 0.00 53 1010.0
20260506011344 21 173 6.4 9.7 0.00 0.00 0.00 53 1010.0
20260506010845 21 157 1.6 8.0 0.00 0.00 0.00 53 1010.0
20260506010345 21 122 3.2 6.4 0.00 0.00 0.00 52 1010.0
20260506005844 22 199 0.0 3.2 0.00 0.00 0.00 51 1010.0
20260506005344 22 121 1.6 4.8 0.00 0.00 0.00 51 1010.0
20260506004845 22 71 1.6 4.8 0.00 0.00 0.00 51 1010.0
20260506004344 22 264 0.0 3.2 0.00 0.00 0.00 50 1010.0
20260506003845 22 154 1.6 4.8 0.00 0.00 0.00 49 1010.0
20260506003344 22 226 3.2 6.4 0.00 0.00 0.00 50 1010.0
20260506002844 22 80 1.6 3.2 0.00 0.00 0.00 50 1010.0
20260506002344 22 0 0.0 0.0 0.00 0.00 0.00 49 1010.0
20260506001844 22 137 0.0 3.2 0.00 0.00 0.00 48 1010.0
20260506001344 22 182 3.2 4.8 0.00 0.00 0.00 48 1010.0
20260506000844 22 141 3.2 6.4 0.00 0.00 0.00 48 1010.0
20260506000344 22 246 4.8 14.5 0.00 0.00 0.00 48 1010.0
20260505235844 23 173 4.8 12.9 0.00 0.00 0.00 48 1010.0
20260505235345 23 268 3.2 4.8 0.00 0.00 0.00 48 1010.0
20260505234844 23 154 1.6 6.4 0.00 0.00 0.00 47 1010.0
20260505234344 23 257 3.2 12.9 0.00 0.00 0.00 48 1009.0
20260505233844 23 167 3.2 6.4 0.00 0.00 0.00 47 1009.0
20260505233346 23 171 4.8 11.3 0.00 0.00 0.00 47 1009.0
20260505232844 23 110 8.0 14.5 0.00 0.00 0.00 46 1009.0
20260505232344 23 269 3.2 8.0 0.00 0.00 0.00 46 1009.0
20260505231845 23 295 3.2 4.8 0.00 0.00 0.00 47 1009.0
20260505231345 23 142 3.2 8.0 0.00 0.00 0.00 46 1009.0
20260505230844 24 223 6.4 16.1 0.00 0.00 0.00 46 1009.0
20260505230345 24 169 4.8 8.0 0.00 0.00 0.00 46 1009.0
20260505225844 24 167 6.4 9.7 0.00 0.00 0.00 44 1009.0
20260505225344 24 219 6.4 12.9 0.00 0.00 0.00 44 1009.0
20260505224844 24 239 4.8 11.3 0.00 0.00 0.00 45 1009.0
20260505224344 24 250 6.4 14.5 0.00 0.00 0.00 45 1009.0
20260505223845 25 115 1.6 6.4 0.00 0.00 0.00 46 1009.0
20260505223344 25 206 6.4 12.9 0.00 0.00 0.00 45 1009.0
20260505222844 25 235 6.4 16.1 0.00 0.00 0.00 45 1009.0
20260505222344 25 120 4.8 9.7 0.00 0.00 0.00 45 1009.0
20260505221844 25 255 11.3 17.7 0.00 0.00 0.00 44 1009.0
20260505221344 25 245 8.0 17.7 0.00 0.00 0.00 45 1009.0
20260505220844 25 260 9.7 24.1 0.00 0.00 0.00 44 1009.0
20260505220348 25 273 4.8 11.3 0.00 0.00 0.00 45 1009.0
20260505215844 25 241 8.0 17.7 0.00 0.00 0.00 44 1009.0
20260505215344 26 220 8.0 16.1 0.00 0.00 0.00 43 1009.0
20260505214845 26 127 6.4 12.9 0.00 0.00 0.00 44 1009.0
20260505214345 26 262 6.4 9.7 0.00 0.00 0.00 43 1009.0
20260505213844 26 200 9.7 14.5 0.00 0.00 0.00 44 1009.0
20260505213344 25 180 6.4 12.9 0.00 0.00 0.00 43 1009.0
20260505212844 26 152 9.7 20.9 0.00 0.00 0.00 44 1009.0
20260505212347 26 217 6.4 11.3 0.00 0.00 0.00 45 1009.0
20260505211844 26 220 4.8 8.0 0.00 0.00 0.00 44 1009.0
20260505211344 26 179 6.4 11.3 0.00 0.00 0.00 43 1009.0
20260505210844 26 175 9.7 17.7 0.00 0.00 0.00 43 1009.0
20260505210344 26 126 4.8 11.3 0.00 0.00 0.00 43 1009.0
20260505205844 26 230 3.2 8.0 0.00 0.00 0.00 45 1009.0
20260505205345 26 220 6.4 16.1 0.00 0.00 0.00 43 1009.0
20260505204844 26 160 8.0 12.9 0.00 0.00 0.00 42 1009.0
20260505204344 26 131 6.4 19.3 0.00 0.00 0.00 43 1009.0
20260505203844 26 240 3.2 11.3 0.00 0.00 0.00 43 1009.0
20260505203345 26 252 11.3 20.9 0.00 0.00 0.00 43 1009.0
20260505202844 26 245 9.7 16.1 0.00 0.00 0.00 44 1009.0
20260505202345 26 142 6.4 12.9 0.00 0.00 0.00 45 1009.0
20260505201845 26 222 6.4 14.5 0.00 0.00 0.00 44 1009.0
20260505201344 26 250 8.0 19.3 0.00 0.00 0.00 44 1009.0
20260505200844 26 183 8.0 19.3 0.00 0.00 0.00 45 1009.0
20260505200345 26 240 8.0 19.3 0.00 0.00 0.00 45 1009.0
20260505195844 26 246 8.0 17.7 0.00 0.00 0.00 44 1009.0
20260505195344 26 251 9.7 14.5 0.00 0.00 0.00 46 1010.0
20260505194844 26 155 4.8 9.7 0.00 0.00 0.00 45 1009.0
20260505194344 26 190 8.0 14.5 0.00 0.00 0.00 45 1010.0
20260505193845 26 271 14.5 19.3 0.00 0.00 0.00 45 1009.0
20260505193344 26 267 8.0 19.3 0.00 0.00 0.00 44 1010.0
20260505192844 26 149 4.8 16.1 0.00 0.00 0.00 44 1010.0
20260505192345 26 172 6.4 12.9 0.00 0.00 0.00 43 1010.0
20260505191845 26 257 6.4 16.1 0.00 0.00 0.00 44 1010.0
20260505191345 26 277 9.7 22.5 0.00 0.00 0.00 45 1010.0
20260505190844 26 155 4.8 9.7 0.00 0.00 0.00 43 1010.0
20260505190344 26 131 6.4 14.5 0.00 0.00 0.00 45 1010.0
20260505185846 26 259 8.0 14.5 0.00 0.00 0.00 44 1010.0
20260505185345 26 166 9.7 14.5 0.00 0.00 0.00 42 1010.0
20260505184844 26 238 4.8 9.7 0.00 0.00 0.00 44 1010.0
20260505184344 26 212 6.4 14.5 0.00 0.00 0.00 43 1010.0
20260505183844 26 234 6.4 14.5 0.00 0.00 0.00 43 1010.0
20260505183344 26 196 4.8 9.7 0.00 0.00 0.00 44 1010.0